Other Surface Observations
Issued by NWS

Home | Current Version | Previous Version | Text Only | Print | Product List | Glossary On
Versions: 1 2 3 4 5 6 7 8 9 10 11 12 13 14 15 16 17 18 19 20 21 22 23 24 25 26 27 28 29 30 31 32 33 34 35 36 37 38 39 40 41 42 43 44 45 46 47 48 49 50
000
SXUS52 KTAE 220918
OSOTAE
OSOTAE
North Florida/South Alabama/Southwest Georgia Weather Roundup
National Weather Service Tallahassee Florida
500 AM EDT FRI MAY 22 2015

Note: "fair" indicates few or no clouds below 12,000 feet with no
significant weather and/or obstructions to visibility.

!FLZ017-115-028-034-025-221000
...North Florida...

CITY           SKY/WX    TMP DP  RH WIND       PRES   REMARKS
TALLAHASSEE    PTCLDY    72  63  73 N7        30.03R
APALACHICOLA   MOCLDY    74  67  78 N6        30.03R
PERRY          PTCLDY    69  65  86 N5        30.02S
CROSS CITY       N/A     69  66  90 CALM      30.01S
JACKSONVILLE   CLEAR     68  63  84 W3        30.01R
$$

!FLZ112-006-005-002-011-221000
...Florida Panhandle...

CITY           SKY/WX    TMP DP  RH WIND       PRES   REMARKS
MARIANNA       RAIN      67  61  81 N8        30.06R
BONIFAY        FAIR      67  61  81 N6        30.09R
PANAMA CITY NW FAIR      69  65  86 NW6       30.05R
TYNDALL AFB    PTCLDY    72  65  78 N8        30.04R
TYND DRONE APT FAIR      71  66  83 N14       30.03R
DE FUNIAK SPR  FAIR      66  61  84 MISG      30.08R
EGLIN AFB      MOCLDY    69  63  79 N9        30.06R
DESTIN         CLOUDY    71  64  78 N8        30.07R
HURLBURT       CLOUDY    69  63  81 N6        30.06R
CRESTVIEW      CLOUDY    67  61  81 N7        30.10R
PENSACOLA      MOCLDY    68  62  81 N10       30.08R
$$

!ALZ063-066-221000
...South Alabama...

CITY           SKY/WX    TMP DP  RH WIND       PRES   REMARKS
DOTHAN         PTCLDY    62  55  77 N5        30.11R
OZARK CAIRNS   MOCLDY    63  55  77 N8        30.09R
FT RUCKER HELI PTCLDY    62  56  80 N6        30.08R
RUCKER HELI 3  FAIR      61  55  83 N7        30.10R
RUCKER HELI 2  FAIR      62  58  86 N6        30.09R
FLORALA APT    MOCLDY    63  57  81 N5        30.12R
ANDALUSIA      PTCLDY    64  55  72 N8        30.11R
TROY           PTCLDY    58  51  78 N6        30.12R
EUFALA         FAIR      59  50  72 N3        30.09R
MOBILE         CLOUDY    62  59  90 N7        30.12R
$$

!GAZ120>161-221000
...Southwest and South Central Georgia...

CITY           SKY/WX    TMP DP  RH WIND       PRES   REMARKS
THOMASVILLE    FAIR      66  63  88 N5        30.05R
BAINBRIDGE     CLEAR     68  61  77 N8        30.05S
MOODY AFB      MOCLDY    66  61  81 NW7       30.02R
VALDOSTA       NOT AVBL
MOULTRIE       CLEAR     68  59  73 N7        30.05R
BLAKELY        PTCLDY    63  55  77 N3        30.08R
ALBANY         CLEAR     63  53  70 N9G16     30.09R
TIFTON         FAIR      64  54  69 N8G16     30.04R
FITZGERALD     FAIR      64  51  63 N9        30.07R
CORDELE        FAIR      63  51  65 N9        30.07R
AMERICUS       FAIR      59  50  72 N9        30.09R
HOMERVILLE     FAIR      68  63  83 CALM      30.03R
$$

!GMZ750-755-770-775-221000
...Coastal and Buoy Obs...

STATION/POSITION TIME  TEMP    WIND        PRES    VSBY  WAVE
                       AIR SEA DIR/SP/G                  HT/PER
                 (UTC) (F)     (DEG/KT/KT) (MB)    (MI)  (FT/S)
KEATON BEACH     0900   71      30/  3/  4 1016.4R
CEDAR KEY        0900   75     360/  6/  9 1016.7R
C TOWER          0900   76      30/ 11/ 12 1016.7R
APALACHICOLA BUO 0850   80 80  280/  8/  8 1016.2F         1/ 4
PANAMA CITY BUOY 0850   80 81  240/  4/  6 1016.6R         1/ 4
MOBILE BUOY      0850   79 82   60/ 14/ 16 1017.3R         2/ 5
ORANGE BCH AL BU 0850   73 81   20/ 16/ 19 1017.3R         2/ 3
$$



USA.gov is the U.S. government's official web portal to all federal, state and local government web resources and services.